Skip Page Navigation
NASA JPL Caltech
NASA Logo - Jet Propulsion Laboratory + View the NASA Portal
+ Center for Near-Earth Object Studies
JPL Home Earth Solar System Stars & Galaxies Technology
JPL Solar System Dynamics
BODIES ORBITS EPHEMERIDES TOOLS PHYSICAL DATA DISCOVERY FAQ SITE MAP
IMPORTANT: The SSD Announcement email list is now available. Major changes are coming in the near future, including possible hostname and/or URL changes. To be notified of such changes, subscribe to this email list.

Please visit this page for more details.


JPL Small-Body Database Browser
Search: [ help ]  
437716 (2014 DV102)
Classification: Main-belt Asteroid          SPK-ID: 2437716
Ephemeris | Orbit Diagram | Orbital Elements | Mission Design | Physical Parameters | Discovery Circumstances ]

[ show orbit diagram ]
Orbital Elements at Epoch 2458600.5 (2019-Apr-27.0) TDB
Reference: JPL 11 (heliocentric ecliptic J2000)
 Element Value Uncertainty (1-sigma)   Units 
e .0769324238435969 7.3695e-08  
a 2.786377302175886 5.4772e-08 au
q 2.572014542576712 2.3298e-07 au
i 4.67169046499748 7.7395e-06 deg
node 158.6969064028846 9.9754e-05 deg
peri 173.3110251700247 0.00011428 deg
M 210.6772180466233 5.6954e-05 deg
tp 2459305.163674428576
(2021-Mar-31.66367443)
0.00027235 TDB
period 1698.862822375585
4.65
5.0092e-05
1.371e-07
d
yr
n .2119064560472271 6.2482e-09 deg/d
Q 3.000740061775059 5.8986e-08 au
  Orbit Determination Parameters
   # obs. used (total)      111  
   data-arc span      5143 days (14.08 yr)  
   first obs. used      2005-03-04  
   last obs. used      2019-04-03  
   planetary ephem.      DE431  
   SB-pert. ephem.      SB431-N16  
   condition code      0  
   norm. resid. RMS      .70359  
   source      ORB  
   producer      Otto Matic  
   solution date      2019-Jul-14 15:56:08  

Additional Information
 Earth MOID = 1.56058 au 
 Jupiter MOID = 2.2736 au 
 T_jup = 3.322 
[ show covariance matrix ]

Ephemeris | Orbit Diagram | Orbital Elements | Mission Design | Physical Parameters | Discovery Circumstances ]

Physical Parameter Table
Parameter Symbol Value Units Sigma Reference Notes
absolute magnitude H 16.8   n/a MPO456079  

437716 (2014 DV102)          Discovered 2007-Sep-10 by Spacewatch at Kitt Peak
Reference: Last Updated: 2015-06-04

Alternate Designations
 2014 DV102 = 2012 UH87 
Ephemeris | Orbit Diagram | Orbital Elements | Mission Design | Physical Parameters | Discovery Circumstances ]
ABOUT SSD CREDITS/AWARDS PRIVACY/COPYRIGHT GLOSSARY LINKS
FirstGov 2019-Dec-16 11:34 UT
(server date/time)  
NASA Home Page
Site Manager:   Ryan S. Park
Webmaster  Alan B. Chamberlin